{"data":{"norad_id":55508,"epoch":"2026-09-19T06:25:05.972736Z","epoch_age_seconds":124725,"freshness":"FRESH","line1":"1 55508U 23017A   26262.26743024 -.00000287  00000+0  00000+0 0  9998","line2":"2 55508   0.0438  27.7540 0002803 104.0392 261.6756  1.00271049  7988","mean_motion":1.00271049,"eccentricity":0.0002803,"inclination_deg":0.0438,"raan_deg":27.754,"arg_perigee_deg":104.0392,"mean_anomaly_deg":261.6756,"bstar":0,"rev_number":798,"period_min":1436.107445131,"perigee_km":35774.982457768,"apogee_km":35798.620122173,"semimajor_km":42164.93828997,"source":"CELESTRAK","updated_at":"2026-09-20T09:00:35.330190Z"}}